Troy, AL

9:10 AM CDT on August 22, 2017 (GMT -0500)
Troy Municipal

Weather History for KTOI - October, 2013

Change the Weather History Date:

Wednesday, October 30, 2013

  Actual Average Record
Temperature  
Mean Temperature 67 °F 61 °F  
Max Temperature 81 °F 74 °F 88 °F (2016)
Min Temperature 52 °F 47 °F 29 °F (2011)
Degree Days  
Heating Degree Days 0 6  
Month to date heating degree days 45 88  
Since 1 July heating degree days 45 92  
Cooling Degree Days 2 2  
Month to date cooling degree days 122 97  
Year to date cooling degree days 2153 2045  
Growing Degree Days 18 (Base 50)    
Moisture  
Dew Point 54 °F    
Average Humidity 65    
Maximum Humidity 93    
Minimum Humidity 36    
Precipitation  
Precipitation 0.00 in 0.10 in 0.00 in (2017)
Month to date precipitation 0.73 3.12  
Year to date precipitation 48.55 45.03  
Snow  
Snow 0.00 in - - ()
Month to date snowfall 0.0  
Since 1 July snowfall 0.0  
Since 1 September snowfall 0.0  
Snow Depth 0.00 in    
Sea Level Pressure  
Sea Level Pressure 30.21 in    
Wind  
Wind Speed 2 mph (SE)    
Max Wind Speed 12 mph    
Max Gust Speed 15 mph    
Visibility 10 miles    
Events      
T = Trace of Precipitation, MM = Missing Value Source: NWS Daily Summary

Daily Weather History Graph

Daily Weather History Graph

Search for Another Location

Airport or City:

Trip Planner

Search our weather history database for the weather conditions in past years. The results will help you decide how hot, cold, wet, or windy it might be!

Date:

Astronomy

Oct. 30, 2013 Rise Set
Actual Time 6:59 AM CDT 5:55 PM CDT
Civil Twilight 6:33 AM CDT 6:20 PM CDT
Nautical Twilight 6:05 AM CDT 6:49 PM CDT
Astronomical Twilight 5:36 AM CDT 7:18 PM CDT
Moon 3:01 AM CDT (10/30) 3:28 PM CDT (10/30)
Length of Visible Light 11h 47m
Length of Day
10h 56m
Waning Crescent, 17% of the Moon is Illuminated
Oct 30
Waning Crescent
Nov 3
New
Nov 9
First Quarter
Nov 17
Full
Nov 25
Last Quarter

Hourly Weather History & Observations

Time (CDT) Temp. Heat Index Dew Point Humidity Pressure Visibility Wind Dir Wind Speed Gust Speed Precip Events Conditions
12:53 AM 55.9 °F - 53.1 °F 90% 30.25 in 9.0 mi Calm Calm - N/A   Clear
1:53 AM 57.0 °F - 53.1 °F 87% 30.23 in 10.0 mi Calm Calm - N/A   Clear
2:53 AM 55.0 °F - 52.0 °F 89% 30.23 in 8.0 mi Calm Calm - N/A   Clear
3:53 AM 55.0 °F - 52.0 °F 89% 30.24 in 9.0 mi Calm Calm - N/A   Clear
4:53 AM 55.0 °F - 52.0 °F 89% 30.25 in 8.0 mi Calm Calm - N/A   Clear
5:53 AM 55.0 °F - 51.1 °F 86% 30.25 in 8.0 mi Calm Calm - N/A   Clear
6:53 AM 54.0 °F - 50.0 °F 86% 30.27 in 9.0 mi Calm Calm - 0.01 in   Clear
7:53 AM 55.9 °F - 52.0 °F 87% 30.27 in 8.0 mi Calm Calm - N/A   Clear
8:53 AM 63.0 °F - 57.0 °F 81% 30.28 in 10.0 mi Calm Calm - N/A   Clear
9:53 AM 72.0 °F - 55.0 °F 55% 30.28 in 10.0 mi South 4.6 mph - N/A   Clear
10:53 AM 78.1 °F - 54.0 °F 43% 30.27 in 10.0 mi ESE 9.2 mph - N/A   Clear
11:53 AM 79.0 °F - 55.0 °F 44% 30.25 in 10.0 mi Variable 4.6 mph - N/A   Clear
12:53 PM 80.1 °F 80.0 °F 54.0 °F 40% 30.23 in 10.0 mi SE 5.8 mph - N/A   Clear
1:53 PM 81.0 °F - 52.0 °F 36% 30.20 in 10.0 mi Variable 3.5 mph - N/A   Clear
2:53 PM 81.0 °F 80.4 °F 53.1 °F 38% 30.18 in 10.0 mi Variable 4.6 mph - N/A   Clear
3:53 PM 80.1 °F - 52.0 °F 38% 30.16 in 10.0 mi SSE 5.8 mph - N/A   Clear
4:53 PM 73.0 °F - 55.0 °F 53% 30.15 in 10.0 mi SE 3.5 mph - N/A   Clear
5:53 PM 68.0 °F - 57.9 °F 70% 30.14 in 10.0 mi Calm Calm - N/A   Clear
6:53 PM 64.9 °F - 57.0 °F 75% 30.15 in 10.0 mi Calm Calm - N/A   Clear
7:53 PM 63.0 °F - 57.0 °F 81% 30.16 in 10.0 mi Calm Calm - N/A   Clear
8:53 PM 61.0 °F - 55.9 °F 83% 30.15 in 10.0 mi Calm Calm - N/A   Clear
9:53 PM 63.0 °F - 55.0 °F 75% 30.15 in 10.0 mi Calm Calm - N/A   Clear
10:53 PM 59.0 °F - 55.0 °F 87% 30.15 in 10.0 mi Calm Calm - N/A   Clear
11:53 PM 60.1 °F - 54.0 °F 80% 30.14 in 10.0 mi Calm Calm - N/A   Clear